CW9688 Weather Reports


Display with metric or nautical units.
time (UTC)temp
F
wind
direction
speed
MPH
gust
MPH
rain 1hr
in
rain 24hr
in
rain mn
in
humidity
%
barometer
mb
20260831233804 84 124 5.0 8.0 0.00 0.00 0.00 29 1013.5
20260831231804 86 146 7.0 12.0 0.00 0.00 0.00 27 1013.5
20260831230303 84 112 4.0 9.0 0.00 0.00 0.00 27 1013.5
20260831225306 86 126 5.0 9.0 0.00 0.00 0.00 28 1013.5
20260831224804 85 156 2.0 12.0 0.00 0.00 0.00 31 1013.5
20260831223304 84 102 7.0 12.0 0.00 0.00 0.00 29 1013.5
20260831222306 84 79 7.0 13.0 0.00 0.00 0.00 29 1013.5
20260831220804 84 42 3.0 9.0 0.00 0.00 0.00 31 1013.5
20260831215804 83 147 2.0 6.0 0.00 0.00 0.00 30 1013.5
20260831215306 83 46 4.0 7.0 0.00 0.00 0.00 30 1013.5
20260831213804 82 35 5.0 10.0 0.00 0.00 0.00 33 1013.5
20260831213304 82 37 3.0 6.0 0.00 0.00 0.00 31 1013.5
20260831212306 82 59 2.0 7.0 0.00 0.00 0.00 32 1013.5
20260831211304 82 107 3.0 6.0 0.00 0.00 0.00 34 1013.5
20260831210804 82 55 4.0 7.0 0.00 0.00 0.00 34 1013.5
20260831210304 82 50 4.0 7.0 0.00 0.00 0.00 37 1013.5
20260831205803 81 59 4.0 8.0 0.00 0.00 0.00 35 1013.5
20260831205305 81 37 4.0 6.0 0.00 0.00 0.00 36 1013.5
20260831204804 81 44 4.0 6.0 0.00 0.00 0.00 34 1013.5
20260831201804 81 125 3.0 7.0 0.00 0.02 0.00 34 1013.5
20260831200303 81 75 3.0 7.0 0.00 0.02 0.00 35 1013.5
20260831195804 81 131 3.0 7.0 0.00 0.02 0.00 34 1013.5
20260831195306 81 59 2.0 6.0 0.00 0.02 0.00 36 1013.5
20260831194804 81 88 1.0 5.0 0.00 0.02 0.00 36 1013.5
20260831193803 80 140 1.0 3.0 0.00 0.02 0.00 33 1013.5
20260831192803 80 142 2.0 5.0 0.00 0.02 0.00 36 1013.5
20260831191304 79 189 0.0 3.0 0.00 0.02 0.00 36 1013.5
20260831185804 79 100 2.0 6.0 0.00 0.02 0.00 37 1013.5
20260831184804 79 126 0.0 2.0 0.00 0.02 0.00 37 1013.5
20260831184304 79 304 0.0 1.0 0.00 0.02 0.00 37 1013.5
20260831183304 79 201 0.0 1.0 0.00 0.02 0.00 35 1013.5
20260831182803 78 201 1.0 2.0 0.00 0.02 0.00 35 1013.5
20260831181804 78 150 0.0 3.0 0.00 0.02 0.00 36 1013.5
20260831180303 77 111 1.0 3.0 0.00 0.02 0.00 39 1013.5
20260831175803 77 147 0.0 1.0 0.00 0.02 0.00 39 1013.5
20260831174803 76 83 0.0 3.0 0.00 0.02 0.00 42 1013.5
20260831174304 76 112 1.0 5.0 0.00 0.02 0.00 38 1013.5
20260831173803 77 140 1.0 3.0 0.00 0.02 0.00 41 1013.5
20260831171803 76 95 3.0 6.0 0.00 0.02 0.00 43 1013.5
20260831164304 77 105 5.0 7.0 0.00 0.02 0.00 47 1013.5
20260831163804 77 78 4.0 7.0 0.00 0.02 0.00 42 1013.5
20260831163304 77 132 1.0 6.0 0.00 0.02 0.00 39 1013.5
20260831162803 76 34 3.0 5.0 0.00 0.02 0.00 40 1013.5
20260831161804 77 314 1.0 3.0 0.00 0.02 0.00 43 1013.5
20260831161304 77 262 0.0 3.0 0.00 0.02 0.00 38 1013.5
20260831160804 77 263 3.0 3.0 0.00 0.02 0.00 38 1013.5
20260831154804 75 315 1.0 3.0 0.00 0.02 0.00 48 1013.5
20260831154304 74 301 1.0 3.0 0.00 0.02 0.00 47 1013.5
20260831153804 74 41 2.0 3.0 0.00 0.02 0.00 48 1013.5
20260831152804 74 355 2.0 3.0 0.00 0.02 0.00 50 1013.5
20260831151805 74 92 1.0 2.0 0.00 0.02 0.00 53 1013.5
20260831151304 74 132 0.0 3.0 0.00 0.02 0.00 46 1013.5
20260831150804 73 192 2.0 3.0 0.00 0.02 0.00 47 1013.5
20260831145803 72 231 1.0 3.0 0.00 0.02 0.00 52 1013.5
20260831144304 71 194 2.0 3.0 0.00 0.02 0.00 54 1013.5
20260831143305 69 210 2.0 3.0 0.00 0.02 0.00 57 1013.5
20260831142805 69 356 0.0 1.0 0.00 0.02 0.00 60 1013.5
20260831141805 68 355 1.0 2.0 0.00 0.02 0.00 60 1013.5
20260831141305 68 355 2.0 3.0 0.00 0.02 0.00 62 1013.5
20260831135805 67 207 0.0 2.0 0.00 0.02 0.00 62 1013.5
20260831135306 67 207 2.0 3.0 0.00 0.02 0.00 62 1013.5
20260831134804 66 202 2.0 3.0 0.00 0.02 0.00 62 1013.5
20260831134305 66 166 0.0 2.0 0.00 0.02 0.00 63 1013.5
20260831133804 66 203 2.0 3.0 0.00 0.02 0.00 64 1013.5
20260831132306 64 162 2.0 2.0 0.00 0.02 0.00 70 1013.5
20260831130805 62 162 0.0 1.0 0.00 0.02 0.00 71 1013.5
20260831125306 61 221 1.0 2.0 0.00 0.02 0.00 72 1013.5
20260831124305 61 221 0.0 2.0 0.00 0.02 0.00 72 1013.5
20260831123805 61 221 1.0 2.0 0.00 0.02 0.00 72 1013.5
20260831121305 61 5 0.0 0.0 0.00 0.02 0.00 72 1013.5
20260831120306 61 5 0.0 3.0 0.00 0.02 0.00 72 1013.5
20260831115804 61 336 0.0 2.0 0.00 0.02 0.00 72 1013.5
20260831115306 62 336 2.0 3.0 0.00 0.02 0.00 71 1013.5
20260831114804 62 225 1.0 3.0 0.00 0.02 0.00 69 1013.5
20260831114305 62 225 2.0 3.0 0.00 0.02 0.00 70 1013.5
20260831112307 63 225 0.0 2.0 0.00 0.02 0.00 67 1013.5
20260831111804 63 225 1.0 2.0 0.00 0.02 0.00 66 1013.5
20260831111305 63 225 1.0 2.0 0.00 0.02 0.00 65 1013.5
20260831110305 64 207 1.0 3.0 0.00 0.02 0.00 64 1013.5
20260831105804 64 205 2.0 5.0 0.00 0.02 0.00 64 1013.5
20260831104805 64 228 2.0 5.0 0.00 0.02 0.00 63 1013.5
20260831103305 64 206 1.0 3.0 0.00 0.02 0.00 63 1013.5
20260831101804 62 218 1.0 3.0 0.00 0.02 0.00 69 1013.5
20260831101306 62 220 1.0 3.0 0.00 0.02 0.00 69 1013.5
20260831100805 63 202 2.0 3.0 0.00 0.02 0.00 69 1013.5
20260831100305 62 199 1.0 5.0 0.00 0.02 0.00 69 1013.5
20260831094805 62 208 0.0 1.0 0.00 0.02 0.00 72 1013.5
20260831093305 63 198 1.0 3.0 0.00 0.02 0.00 71 1013.5
20260831092804 63 198 1.0 2.0 0.00 0.02 0.00 71 1013.5
20260831092306 62 198 1.0 2.0 0.00 0.02 0.00 70 1013.5
20260831090304 63 146 1.0 2.0 0.00 0.02 0.00 69 1013.5
20260831085306 63 146 0.0 1.0 0.00 0.02 0.00 68 1013.5
20260831084304 63 146 0.0 2.0 0.00 0.02 0.00 67 1013.5
20260831083804 63 146 0.0 2.0 0.00 0.02 0.00 67 1013.5
20260831082306 62 146 0.0 0.0 0.00 0.02 0.00 69 1013.5
20260831081305 63 146 0.0 2.0 0.00 0.02 0.00 65 1013.5
20260831080305 63 146 1.0 2.0 0.00 0.02 0.00 64 1013.5
20260831073305 64 221 1.0 2.0 0.00 0.02 0.00 61 1013.5
20260831072805 64 191 1.0 1.0 0.00 0.02 0.00 61 1013.5
20260831071805 65 191 0.0 1.0 0.00 0.02 0.00 58 1013.5
20260831071306 65 191 1.0 2.0 0.00 0.02 0.00 58 1013.5
20260831070804 65 191 1.0 2.0 0.00 0.02 0.00 57 1013.5
20260831070305 65 191 1.0 2.0 0.00 0.02 0.00 56 1013.5
20260831065805 65 311 1.0 2.0 0.00 0.02 0.00 56 1013.5
20260831064305 66 263 1.0 3.0 0.00 0.02 0.00 56 1013.5
20260831062306 68 275 1.0 3.0 0.00 0.02 0.00 51 1013.5
20260831061805 69 192 1.0 3.0 0.00 0.02 0.00 49 1013.5
20260831054805 71 238 3.0 7.0 0.00 0.02 0.02 45 1013.5
20260831054304 71 249 5.0 7.0 0.00 0.02 0.02 45 1013.5
20260831051305 70 277 6.0 10.0 0.00 0.02 0.02 52 1013.5
20260831045804 69 297 4.0 8.0 0.00 0.02 0.02 66 1013.5
20260831045306 68 300 3.0 10.0 0.00 0.02 0.02 66 1013.5
20260831044805 68 252 5.0 8.0 0.00 0.02 0.02 66 1013.5
20260831044305 67 274 3.0 7.0 0.00 0.02 0.02 67 1013.5
20260831043804 67 317 3.0 5.0 0.00 0.02 0.02 69 1013.5
20260831043305 67 216 1.0 2.0 0.00 0.02 0.02 68 1013.5
20260831042805 67 216 0.0 2.0 0.00 0.02 0.02 68 1013.5
20260831042307 68 216 1.0 2.0 0.00 0.02 0.02 67 1013.5
20260831041805 68 216 1.0 2.0 0.00 0.02 0.02 66 1013.5
20260831040805 69 203 2.0 5.0 0.00 0.02 0.02 64 1013.5
20260831040305 69 173 3.0 6.0 0.00 0.02 0.02 64 1013.5
20260831035804 69 181 3.0 7.0 0.00 0.02 0.02 64 1013.5
20260831034305 69 184 4.0 8.0 0.00 0.02 0.02 64 1013.5
20260831033804 68 185 5.0 7.0 0.00 0.02 0.02 64 1013.5
20260831033305 67 184 3.0 5.0 0.00 0.02 0.02 65 1013.5
20260831032306 66 213 2.0 3.0 0.00 0.02 0.02 66 1013.5
20260831030805 66 213 1.0 2.0 0.00 0.02 0.02 65 1013.5
20260831025805 67 249 2.0 3.0 0.00 0.02 0.02 63 1013.5
20260831025306 68 200 1.0 5.0 0.00 0.02 0.02 61 1013.5
20260831024305 68 210 2.0 5.0 0.00 0.02 0.02 61 1013.5
20260831022805 67 222 2.0 3.0 0.00 0.02 0.02 62 1013.5
20260831022306 67 212 2.0 3.0 0.00 0.02 0.02 64 1013.5
20260831021804 67 252 1.0 3.0 0.00 0.02 0.02 64 1011.6
20260831020804 67 179 1.0 3.0 0.00 0.02 0.02 64 1011.6
20260831020305 67 179 1.0 2.0 0.00 0.02 0.02 64 1011.6
20260831015805 67 179 1.0 2.0 0.00 0.02 0.02 64 1011.6
20260831014804 68 179 0.0 2.0 0.00 0.02 0.02 61 1011.6
20260831013305 69 144 1.0 2.0 0.00 0.02 0.02 61 1011.6
20260831012306 70 144 2.0 3.0 0.00 0.02 0.02 59 1011.6
20260831011305 71 160 3.0 5.0 0.00 0.02 0.02 57 1011.6
20260831010804 71 178 1.0 5.0 0.00 0.02 0.02 58 1011.6
20260831010306 71 178 4.0 6.0 0.00 0.02 0.02 57 1011.6
20260831005306 72 165 5.0 7.0 0.00 0.02 0.02 56 1011.6
20260831004804 72 183 4.0 8.0 0.00 0.02 0.02 54 1011.6
20260831003805 73 155 3.0 7.0 0.00 0.02 0.02 52 1011.6
20260831003305 73 173 5.0 10.0 0.00 0.02 0.02 51 1011.6
20260831002805 73 189 4.0 8.0 0.00 0.02 0.02 50 1011.6
20260831000305 75 153 2.0 6.0 0.00 0.02 0.02 47 1011.6
20260830234804 74 146 5.0 7.0 0.00 0.02 0.02 49 1011.6